This is the latest recevied weather packets stored in our database for station/object AE5HO. If no packets are shown the sender has not sent any weather packets the latest 10 day(s).
| Time | Temp. | Humidity | Pressure | Rain* | Wind** | Luminosity | Snow |
|---|---|---|---|---|---|---|---|
| 1788070463 | 28.89° C | 62% | 1015.4 hPa | 0 mm | - | 0 W/m² | - |
| 1788070160 | 28.89° C | 64% | 1015.4 hPa | 0 mm | - | 0 W/m² | - |
| 1788069856 | 29.44° C | 61% | 1015.4 hPa | 0 mm | - | 0 W/m² | - |
| 1788069551 | 30° C | 54% | 1015.5 hPa | 0 mm | - | 0 W/m² | - |
| 1788069247 | 30° C | 53% | 1015.6 hPa | 0 mm | - | 0 W/m² | - |
| 1788068942 | 30° C | 53% | 1015.5 hPa | 0 mm | - | 0 W/m² | - |
| 1788068638 | 30° C | 52% | 1015.4 hPa | 0 mm | - | 0 W/m² | - |
| 1788068333 | 30.56° C | 51% | 1015.5 hPa | 0 mm | - | 0 W/m² | - |
| 1788068028 | 30.56° C | 51% | 1015.4 hPa | 0 mm | - | 0 W/m² | - |
| 1788067727 | 30.56° C | 50% | 1015.3 hPa | 0 mm | - | 0 W/m² | - |
| 1788067423 | 31.11° C | 50% | 1015.4 hPa | 0 mm | - | 0 W/m² | - |
| 1788067118 | 31.11° C | 50% | 1015.5 hPa | 0 mm | - | 0 W/m² | - |
| 1788066814 | 31.11° C | 49% | 1015.6 hPa | 0 mm | - | 0 W/m² | - |
| 1788066513 | 31.67° C | 48% | 1015.6 hPa | 0 mm | - | 0 W/m² | - |
| 1788066208 | 31.67° C | 48% | 1015.5 hPa | 0 mm | - | 0 W/m² | - |
| 1788065906 | 31.67° C | 48% | 1015.6 hPa | 0 mm | - | 0 W/m² | - |
| 1788065601 | 31.67° C | 47% | 1015.3 hPa | 0 mm | - | 0 W/m² | - |
| 1788065300 | 31.67° C | 48% | 1015.3 hPa | 0 mm | - | 0 W/m² | - |
| 1788064996 | 31.67° C | 48% | 1015.4 hPa | 0 mm | - | 0 W/m² | - |
| 1788064692 | 31.67° C | 48% | 1015.2 hPa | 0 mm | - | 0 W/m² | - |
| 1788064391 | 31.67° C | 49% | 1015.6 hPa | 0 mm | - | 0 W/m² | - |
| 1788064089 | 31.67° C | 48% | 1015.6 hPa | 0 mm | - | 0 W/m² | - |
| 1788063784 | 31.67° C | 48% | 1015.4 hPa | 0 mm | - | 0 W/m² | - |
| 1788063483 | 31.67° C | 48% | 1015.3 hPa | 0 mm | - | 0 W/m² | - |
| 1788063182 | 31.67° C | 48% | 1015.2 hPa | 0 mm | - | 0 W/m² | - |
* Rain latest hour (hover to see other rain measurements)
** Current wind speed in m/s (hover to see current wind gust speed)